BERGEN/FLESLAND_AFB current weather conditions

sailwx.info

Wind from 330 at 11 knots

Air temperature 6.0° C
Visibility: greater than 5.4 NM
Dewpoint 2.0° C

Last reported at 2017-Nov-19 12:50 UTC.
Time now 2017-Nov-19 14:17 UTC

Location: N 60°18' E 005°13'.
View on Google Maps.

See reports from other nearby stations

  
Tides and Currents Weather Stations Pressure Air Temp Water Temp Dewpoint Dewpoint Depression Visibility Wind Speed Wind Dir Waves Ship Positions
date/time (UTC)wind fromknots sea level pressurealtimeterstation pressurevisibilityair tempwater tempwave heightnotes
2017-Nov-19 12:50 330 11 5.4 6.0
2017-Nov-19 12:20 330 11 5.4 6.0
2017-Nov-19 11:50 340 8 5.4 6.0
2017-Nov-19 11:20 340 7 5.4 5.0
2017-Nov-19 10:50 340 6 5.4 5.0
2017-Nov-19 10:20 360 6 5.4 5.0
2017-Nov-19 09:50 340 6 5.4 4.0
2017-Nov-19 09:20 360 2 5.4 4.0
2017-Nov-19 08:50 030 4 5.4 3.0
2017-Nov-19 08:20 340 4 5.4 3.0
2017-Nov-19 07:50 5.4 2.0
2017-Nov-19 06:50 330 5 5.4 4.0
2017-Nov-19 06:20 5.4 2.0
2017-Nov-19 05:50 080 2 5.4 3.0
2017-Nov-19 05:20 340 7 5.4 4.0
2017-Nov-19 04:50 340 7 5.4 4.0
2017-Nov-19 04:20 340 11 5.4 4.0
2017-Nov-19 03:50 350 8 5.4 4.0
2017-Nov-19 02:50 350 11 5.4 4.0
2017-Nov-19 01:50 360 8 5.4 4.0
2017-Nov-19 00:50 360 7 5.4 4.0
2017-Nov-18 23:50 360 11 5.4 5.0
2017-Nov-18 23:20 340 14 5.4 5.0
2017-Nov-18 22:50 360 12 5.4 5.0
2017-Nov-18 22:20 350 14 5.4 6.0
2017-Nov-18 21:50 340 17 gusting 27 5.4 6.0
2017-Nov-18 21:20 350 13 5.4 6.0
2017-Nov-18 20:50 340 13 5.4 6.0
2017-Nov-18 20:20 340 17 5.4 6.0
2017-Nov-18 19:50 350 18 5.4 6.0
2017-Nov-18 19:20 340 18 5.4 6.0
2017-Nov-18 18:50 330 18 5.4 7.0
2017-Nov-18 18:20 340 17 5.4 7.0 Showers in the vicinity.
2017-Nov-18 17:50 330 20 5.4 7.0
2017-Nov-18 17:20 310 22 5.4 7.0 Showers in the vicinity.
2017-Nov-18 16:50 310 19 5.4 7.0 Light rain showers.
2017-Nov-18 16:20 310 21 gusting 33 5.4 7.0 Showers in the vicinity.
2017-Nov-18 15:50 310 20 5.4 7.0 Showers in the vicinity.
2017-Nov-18 15:20 320 13 gusting 25 5.4 6.0 Light rain showers.
2017-Nov-18 14:50 310 18 5.4 7.0 Light rain showers.
2017-Nov-18 14:20 310 17 5.4 6.0 Showers in the vicinity.
2017-Nov-18 13:50 290 17 gusting 32 5.4 6.0 Light rain showers.
2017-Nov-18 13:20 300 19 gusting 31 5.4 7.0 Light rain showers.
2017-Nov-18 12:50 300 20 gusting 34 5.4 7.0 Showers in the vicinity.
2017-Nov-18 12:20 300 17 4.9 7.0 Showers in the vicinity.
2017-Nov-18 11:50 290 14 5.4 6.0 Light rain showers.
2017-Nov-18 11:20 290 17 gusting 33 5.4 5.0 Light rain showers.
2017-Nov-18 10:50 280 9 gusting 22 5.4 7.0 Light rain showers.
2017-Nov-18 10:20 270 9 5.4 7.0 Thunderstorm.
2017-Nov-18 09:50 270 11 gusting 24 5.4 6.0 Thunderstorm.
2017-Nov-18 09:20 270 6 5.4 6.0 Showers in the vicinity.
2017-Nov-18 08:50 250 6 5.4 5.0 Showers in the vicinity.
2017-Nov-18 08:20 290 11 gusting 27 5.4 5.0 Showers in the vicinity.
2017-Nov-18 07:50 290 9 5.4 4.0 Light rain showers.
2017-Nov-18 07:20 270 9 gusting 20 4.9 5.0 Light rain showers.
2017-Nov-18 06:50 200 9 5.4 4.0 Light rain showers.
2017-Nov-18 06:20 240 8 5.4 3.0 Light rain showers.
2017-Nov-18 05:50 5.4 3.0
2017-Nov-18 05:20 140 4 5.4 2.0 Showers in the vicinity.
2017-Nov-18 04:50 100 4 5.4 2.0 Showers in the vicinity.
2017-Nov-18 04:20 250 6 5.4 3.0 Showers in the vicinity.
2017-Nov-18 03:50 270 6 5.4 3.0 Light rain showers. Small hail/snow pellets.
2017-Nov-18 02:50 210 5 5.4 4.0 Showers in the vicinity.
2017-Nov-18 02:20 250 6 5.4 4.0 Showers in the vicinity.
2017-Nov-18 01:50 260 8 5.4 4.0 Showers in the vicinity.
2017-Nov-18 00:50 5.4 3.0 Light rain showers.
2017-Nov-18 00:20 300 17 gusting 27 5.4 5.0 Rain showers. Small hail/snow pellets.
2017-Nov-17 23:50 260 7 5.4 5.0
2017-Nov-17 23:20 250 11 5.4 4.0 Thunderstorm.
2017-Nov-17 22:50 260 13 gusting 26 5.4 5.0 Rain showers.
2017-Nov-17 22:20 280 7 5.4 5.0 Showers in the vicinity.
2017-Nov-17 21:50 270 13 5.4 6.0 Showers in the vicinity.
2017-Nov-17 21:20 260 12 gusting 21 5.4 6.0
2017-Nov-17 20:50 260 14 gusting 26 5.4 7.0 Light thunderstorm with rain.
2017-Nov-17 20:20 240 8 5.4 6.0 Thunderstorm.
2017-Nov-17 19:50 250 12 5.4 6.0 Thunderstorm.
2017-Nov-17 19:20 250 9 5.4 5.0 Showers in the vicinity.
2017-Nov-17 18:50 270 12 gusting 22 5.4 4.0 Light rain showers.
2017-Nov-17 18:20 260 9 5.4 5.0 Light rain showers.
2017-Nov-17 17:50 250 13 gusting 22 5.4 7.0 Light rain showers.
2017-Nov-17 17:20 250 9 5.4 7.0
2017-Nov-17 16:50 260 13 5.4 7.0
2017-Nov-17 16:20 260 15 5.4 7.0
2017-Nov-17 15:50 250 9 5.4 7.0 Showers in the vicinity.
2017-Nov-17 15:20 250 12 5.4 6.0 Showers in the vicinity.
2017-Nov-17 14:50 260 17 gusting 28 5.4 7.0 Light rain showers.
2017-Nov-17 14:20 250 13 gusting 25 5.4 8.0 Showers in the vicinity.